Zurück zum Katalog

OPS 4682 DEB

AktivPO
NORAD 38395·DEBRIS·🇺🇸 United States

Gestartet Apr 3, 1965 von Vandenberg Space Force Base

Loading…

Nächste Überflüge (nächste 24 Stunden)

TLE

AktuellSource: Space-Track

Epoche: Sep 13, 2026, 18:35 UTC

1 38395U 65027CY  26256.77434928  .00000120  00000-0  38156-3 0  9992
2 38395  90.2634  20.4351 0030680 105.3077 255.1438 12.98527430106487

Verfolge OPS 4682 DEB in Echtzeit mit AllMySat

Download on the App Store